TIANMU-1 10

Last updated on Sun Apr 12 2026 00:02:27 GMT+0000 (Coordinated Universal Time)

1 57402U 23101D 26100.69660157 .00006989 00000+0 24731-3 0 9995 2 57402 97.2689 153.1370 0005280 46.1335 314.0341 15.29443876151325
UTC large
Height (km)
Speed (km/s)
/
Latitude / Longitude
Inclination (degrees)
Orbital Period (minutes)
Azimuth
Elevation
Range (km)
Doppler Factor

Next 0 passes for location: London (51.5072 / 0.1276)

Sorry there are no passes over London.
TIANMU-1 10